Time,TemperatureF,DewpointF,PressureIn,WindDirection,WindDirectionDegrees,WindSpeedMPH,WindSpeedGustMPH,Humidity,HourlyPrecipIn,Conditions,Clouds,dailyrainin,SoftwareType,DateUTC
2013-08-09 00:00:00,62.5,61.0,29.98,SW,223,1.0,4.0,94,0.00,,,0.00,weatherlink.com 1.10,2013-08-09 05:00:00,
2013-08-09 00:15:00,62.1,60.0,29.98,SW,229,3.0,4.0,94,0.00,,,0.00,weatherlink.com 1.10,2013-08-09 05:15:00,
2013-08-09 00:30:00,61.9,61.0,29.98,SW,236,4.0,4.0,95,0.00,,,0.00,weatherlink.com 1.10,2013-08-09 05:30:00,
2013-08-09 00:45:00,61.6,60.0,29.98,WSW,239,1.0,3.0,94,0.00,,,0.00,weatherlink.com 1.10,2013-08-09 05:45:00,
2013-08-09 01:00:00,61.3,60.0,29.99,SW,232,2.0,2.0,95,0.00,,,0.00,weatherlink.com 1.10,2013-08-09 06:00:00,
2013-08-09 01:15:00,61.1,60.0,29.99,WSW,238,1.0,2.0,96,0.00,,,0.00,weatherlink.com 1.10,2013-08-09 06:15:00,
2013-08-09 01:30:00,60.7,60.0,29.98,SW,225,0.0,2.0,96,0.00,,,0.00,weatherlink.com 1.10,2013-08-09 06:30:00,
2013-08-09 01:45:00,60.5,59.0,29.98,WSW,242,1.0,1.0,96,0.00,,,0.00,weatherlink.com 1.10,2013-08-09 06:45:00,
2013-08-09 02:00:00,59.9,59.0,29.99,SW,220,2.0,3.0,96,0.00,,,0.00,weatherlink.com 1.10,2013-08-09 07:00:00,
2013-08-09 02:15:00,59.7,59.0,29.99,WSW,240,2.0,3.0,96,0.00,,,0.00,weatherlink.com 1.10,2013-08-09 07:15:00,
2013-08-09 02:30:00,59.5,59.0,29.99,SW,220,1.0,2.0,97,0.00,,,0.00,weatherlink.com 1.10,2013-08-09 07:30:00,
2013-08-09 02:45:00,59.2,58.0,29.99,SW,221,0.0,1.0,97,0.00,,,0.00,weatherlink.com 1.10,2013-08-09 07:45:00,
2013-08-09 03:00:00,58.9,58.0,29.99,SW,221,0.0,1.0,97,0.00,,,0.00,weatherlink.com 1.10,2013-08-09 08:00:00,
2013-08-09 03:15:00,58.9,58.0,29.99,SW,222,0.0,1.0,97,0.00,,,0.00,weatherlink.com 1.10,2013-08-09 08:15:00,
2013-08-09 03:30:00,58.8,58.0,30.00,SW,221,0.0,0.0,97,0.00,,,0.00,weatherlink.com 1.10,2013-08-09 08:30:00,
2013-08-09 03:46:00,58.5,58.0,30.00,SW,222,0.0,0.0,97,0.00,,,0.00,weatherlink.com 1.10,2013-08-09 08:46:00,
2013-08-09 04:01:00,58.3,58.0,30.00,SW,222,0.0,1.0,97,0.00,,,0.00,weatherlink.com 1.10,2013-08-09 09:01:00,
2013-08-09 04:16:00,57.9,57.0,30.00,SW,222,0.0,0.0,97,0.00,,,0.00,weatherlink.com 1.10,2013-08-09 09:16:00,
2013-08-09 04:31:00,57.8,57.0,30.00,SW,223,0.0,0.0,97,0.00,,,0.00,weatherlink.com 1.10,2013-08-09 09:31:00,
2013-08-09 04:46:00,57.5,57.0,30.00,SW,223,0.0,0.0,97,0.00,,,0.00,weatherlink.com 1.10,2013-08-09 09:46:00,
2013-08-09 05:01:00,57.1,56.0,29.99,SW,223,0.0,0.0,97,0.00,,,0.00,weatherlink.com 1.10,2013-08-09 10:01:00,
2013-08-09 05:16:00,57.1,56.0,29.99,SW,223,0.0,1.0,97,0.00,,,0.00,weatherlink.com 1.10,2013-08-09 10:16:00,
2013-08-09 05:31:00,56.6,56.0,30.00,SW,223,0.0,0.0,97,0.00,,,0.00,weatherlink.com 1.10,2013-08-09 10:31:00,
2013-08-09 05:46:00,56.7,56.0,30.00,SW,223,0.0,0.0,98,0.00,,,0.00,weatherlink.com 1.10,2013-08-09 10:46:00,
2013-08-09 06:01:00,56.5,56.0,30.00,SW,228,0.0,1.0,97,0.00,,,0.00,weatherlink.com 1.10,2013-08-09 11:01:00,
2013-08-09 06:16:00,56.0,55.0,30.01,WSW,242,0.0,0.0,97,0.00,,,0.00,weatherlink.com 1.10,2013-08-09 11:16:00,
2013-08-09 06:31:00,56.3,56.0,30.01,WSW,242,0.0,1.0,97,0.00,,,0.00,weatherlink.com 1.10,2013-08-09 11:31:00,
2013-08-09 06:46:00,56.7,56.0,30.01,WSW,251,1.0,1.0,97,0.00,,,0.00,weatherlink.com 1.10,2013-08-09 11:46:00,
2013-08-09 07:01:00,57.0,56.0,30.02,West,260,1.0,1.0,96,0.00,,,0.00,weatherlink.com 1.10,2013-08-09 12:01:00,
2013-08-09 07:16:00,57.5,56.0,30.02,West,265,0.0,3.0,95,0.00,,,0.00,weatherlink.com 1.10,2013-08-09 12:16:00,
2013-08-09 07:31:00,58.6,57.0,30.02,West,266,0.0,1.0,95,0.00,,,0.00,weatherlink.com 1.10,2013-08-09 12:31:00,
2013-08-09 07:47:00,59.6,58.0,30.02,West,267,0.0,2.0,93,0.00,,,0.00,weatherlink.com 1.10,2013-08-09 12:47:00,
2013-08-09 08:01:00,60.6,58.0,30.02,WNW,292,0.0,3.0,91,0.00,,,0.00,weatherlink.com 1.10,2013-08-09 13:01:00,
2013-08-09 08:16:00,60.6,57.0,30.03,West,267,3.0,4.0,89,0.00,,,0.00,weatherlink.com 1.10,2013-08-09 13:16:00,
2013-08-09 08:31:00,61.4,58.0,30.03,WNW,283,2.0,4.0,88,0.00,,,0.00,weatherlink.com 1.10,2013-08-09 13:31:00,
2013-08-09 08:46:00,62.7,59.0,30.03,West,275,2.0,5.0,86,0.00,,,0.00,weatherlink.com 1.10,2013-08-09 13:46:00,
2013-08-09 09:01:00,63.8,59.0,30.04,West,277,0.0,3.0,83,0.00,,,0.00,weatherlink.com 1.10,2013-08-09 14:01:00,
2013-08-09 09:16:00,64.3,59.0,30.04,West,267,2.0,5.0,82,0.00,,,0.00,weatherlink.com 1.10,2013-08-09 14:16:00,
2013-08-09 09:31:00,65.2,60.0,30.04,West,263,0.0,6.0,82,0.00,,,0.00,weatherlink.com 1.10,2013-08-09 14:31:00,
2013-08-09 09:46:00,65.9,60.0,30.05,West,277,0.0,6.0,81,0.00,,,0.00,weatherlink.com 1.10,2013-08-09 14:46:00,
2013-08-09 10:01:00,66.0,58.0,30.05,NW,316,4.0,10.0,75,0.00,,,0.00,weatherlink.com 1.10,2013-08-09 15:01:00,
2013-08-09 10:16:00,67.1,59.0,30.05,WNW,289,8.0,12.0,75,0.00,,,0.00,weatherlink.com 1.10,2013-08-09 15:16:00,
2013-08-09 10:31:00,67.1,57.0,30.06,WNW,292,3.0,13.0,71,0.00,,,0.00,weatherlink.com 1.10,2013-08-09 15:31:00,
2013-08-09 10:46:00,67.8,57.0,30.06,NW,311,5.0,8.0,69,0.00,,,0.00,weatherlink.com 1.10,2013-08-09 15:46:00,
2013-08-09 11:01:00,67.6,56.0,30.06,West,271,8.0,12.0,67,0.00,,,0.00,weatherlink.com 1.10,2013-08-09 16:01:00,
2013-08-09 11:16:00,68.9,56.0,30.05,WNW,289,4.0,9.0,64,0.00,,,0.00,weatherlink.com 1.10,2013-08-09 16:16:00,
2013-08-09 11:31:00,68.1,56.0,30.05,WNW,303,5.0,13.0,66,0.00,,,0.00,weatherlink.com 1.10,2013-08-09 16:31:00,
2013-08-09 11:46:00,69.0,55.0,30.05,WNW,282,2.0,12.0,62,0.00,,,0.00,weatherlink.com 1.10,2013-08-09 16:46:00,
2013-08-09 12:01:00,68.4,55.0,30.04,WNW,297,7.0,11.0,63,0.00,,,0.00,weatherlink.com 1.10,2013-08-09 17:01:00,
2013-08-09 12:16:00,69.5,53.0,30.04,SW,230,2.0,12.0,56,0.00,,,0.00,weatherlink.com 1.10,2013-08-09 17:16:00,
2013-08-09 12:32:00,69.7,51.0,30.04,West,261,4.0,14.0,52,0.00,,,0.00,weatherlink.com 1.10,2013-08-09 17:32:00,
2013-08-09 12:47:00,70.2,52.0,30.04,NNW,337,6.0,12.0,53,0.00,,,0.00,weatherlink.com 1.10,2013-08-09 17:47:00,
2013-08-09 13:02:00,70.1,51.0,30.04,WNW,299,4.0,12.0,51,0.00,,,0.00,weatherlink.com 1.10,2013-08-09 18:02:00,
2013-08-09 13:17:00,70.5,51.0,30.04,West,261,4.0,11.0,50,0.00,,,0.00,weatherlink.com 1.10,2013-08-09 18:17:00,
2013-08-09 13:32:00,71.1,53.0,30.04,NW,313,4.0,9.0,53,0.00,,,0.00,weatherlink.com 1.10,2013-08-09 18:32:00,
2013-08-09 13:47:00,71.2,51.0,30.04,NW,318,3.0,14.0,49,0.00,,,0.00,weatherlink.com 1.10,2013-08-09 18:47:00,
2013-08-09 14:02:00,71.5,52.0,30.04,NW,320,4.0,14.0,50,0.00,,,0.00,weatherlink.com 1.10,2013-08-09 19:02:00,
2013-08-09 14:17:00,72.5,53.0,30.03,NNE,13,4.0,13.0,50,0.00,,,0.00,weatherlink.com 1.10,2013-08-09 19:17:00,
2013-08-09 14:32:00,71.9,52.0,30.04,NNE,30,10.0,13.0,49,0.00,,,0.00,weatherlink.com 1.10,2013-08-09 19:32:00,
2013-08-09 14:47:00,72.0,52.0,30.03,West,272,9.0,12.0,50,0.00,,,0.00,weatherlink.com 1.10,2013-08-09 19:47:00,
2013-08-09 15:02:00,71.9,52.0,30.03,WNW,291,5.0,16.0,49,0.00,,,0.00,weatherlink.com 1.10,2013-08-09 20:02:00,
2013-08-09 15:17:00,72.8,52.0,30.03,West,275,1.0,10.0,49,0.00,,,0.00,weatherlink.com 1.10,2013-08-09 20:17:00,
2013-08-09 15:32:00,72.7,52.0,30.03,West,268,6.0,10.0,49,0.00,,,0.00,weatherlink.com 1.10,2013-08-09 20:32:00,
2013-08-09 15:47:00,72.5,53.0,30.04,West,265,5.0,8.0,50,0.00,,,0.00,weatherlink.com 1.10,2013-08-09 20:47:00,
2013-08-09 16:02:00,72.4,52.0,30.04,West,266,6.0,12.0,49,0.00,,,0.00,weatherlink.com 1.10,2013-08-09 21:02:00,
2013-08-09 16:17:00,72.7,52.0,30.03,NW,310,7.0,15.0,48,0.00,,,0.00,weatherlink.com 1.10,2013-08-09 21:17:00,
2013-08-09 16:32:00,72.5,53.0,30.04,NNW,346,4.0,11.0,50,0.00,,,0.00,weatherlink.com 1.10,2013-08-09 21:32:00,
2013-08-09 16:47:00,71.9,53.0,30.04,WSW,258,6.0,10.0,51,0.00,,,0.00,weatherlink.com 1.10,2013-08-09 21:47:00,
2013-08-09 17:02:00,72.1,52.0,30.04,NNW,329,5.0,11.0,50,0.00,,,0.00,weatherlink.com 1.10,2013-08-09 22:02:00,
2013-08-09 17:17:00,71.7,51.0,30.04,NW,320,3.0,10.0,49,0.00,,,0.00,weatherlink.com 1.10,2013-08-09 22:17:00,
2013-08-09 17:32:00,71.7,52.0,30.04,SW,224,4.0,12.0,51,0.00,,,0.00,weatherlink.com 1.10,2013-08-09 22:32:00,
2013-08-09 17:47:00,71.2,53.0,30.05,NNE,14,4.0,8.0,52,0.00,,,0.00,weatherlink.com 1.10,2013-08-09 22:47:00,
2013-08-09 18:02:00,70.9,53.0,30.05,NNE,16,3.0,9.0,53,0.00,,,0.00,weatherlink.com 1.10,2013-08-09 23:02:00,
2013-08-09 18:17:00,70.4,52.0,30.05,NNE,12,6.0,11.0,53,0.00,,,0.00,weatherlink.com 1.10,2013-08-09 23:17:00,
2013-08-09 18:32:00,70.2,53.0,30.05,North,360,4.0,8.0,54,0.00,,,0.00,weatherlink.com 1.10,2013-08-09 23:32:00,
2013-08-09 18:47:00,69.8,54.0,30.05,NW,304,1.0,11.0,57,0.00,,,0.00,weatherlink.com 1.10,2013-08-09 23:47:00,
2013-08-09 19:02:00,69.2,53.0,30.06,North,356,4.0,11.0,56,0.00,,,0.00,weatherlink.com 1.10,2013-08-10 00:02:00,
2013-08-09 19:17:00,69.2,53.0,30.06,West,270,2.0,7.0,57,0.00,,,0.00,weatherlink.com 1.10,2013-08-10 00:17:00,
2013-08-09 19:32:00,69.0,53.0,30.07,WNW,288,0.0,6.0,57,0.00,,,0.00,weatherlink.com 1.10,2013-08-10 00:32:00,
2013-08-09 19:47:00,68.8,52.0,30.07,WNW,292,2.0,6.0,56,0.00,,,0.00,weatherlink.com 1.10,2013-08-10 00:47:00,
2013-08-09 20:02:00,68.6,53.0,30.07,NW,304,0.0,3.0,57,0.00,,,0.00,weatherlink.com 1.10,2013-08-10 01:02:00,
2013-08-09 20:17:00,68.1,52.0,30.07,NNW,332,0.0,5.0,57,0.00,,,0.00,weatherlink.com 1.10,2013-08-10 01:17:00,
2013-08-09 20:32:00,67.5,53.0,30.08,NW,322,0.0,5.0,60,0.00,,,0.00,weatherlink.com 1.10,2013-08-10 01:32:00,
2013-08-09 20:47:00,66.9,52.0,30.08,NW,313,2.0,7.0,60,0.00,,,0.00,weatherlink.com 1.10,2013-08-10 01:47:00,
2013-08-09 21:02:00,66.5,52.0,30.09,NNW,338,2.0,7.0,61,0.00,,,0.00,weatherlink.com 1.10,2013-08-10 02:02:00,
2013-08-09 21:17:00,66.3,52.0,30.09,NW,312,1.0,7.0,61,0.00,,,0.00,weatherlink.com 1.10,2013-08-10 02:17:00,
2013-08-09 21:32:00,66.0,52.0,30.10,NW,324,2.0,8.0,62,0.00,,,0.00,weatherlink.com 1.10,2013-08-10 02:32:00,
2013-08-09 21:47:00,65.8,53.0,30.10,NNW,331,4.0,8.0,63,0.00,,,0.00,weatherlink.com 1.10,2013-08-10 02:47:00,
2013-08-09 22:02:00,65.6,53.0,30.11,NNW,344,3.0,5.0,63,0.00,,,0.00,weatherlink.com 1.10,2013-08-10 03:02:00,
2013-08-09 22:17:00,65.2,53.0,30.11,NW,320,1.0,5.0,65,0.00,,,0.00,weatherlink.com 1.10,2013-08-10 03:17:00,
2013-08-09 22:32:00,65.0,53.0,30.11,NW,324,2.0,5.0,66,0.00,,,0.00,weatherlink.com 1.10,2013-08-10 03:32:00,
2013-08-09 22:47:00,64.7,53.0,30.11,NW,317,0.0,2.0,66,0.00,,,0.00,weatherlink.com 1.10,2013-08-10 03:47:00,
2013-08-09 23:02:00,64.5,53.0,30.11,NW,310,0.0,2.0,67,0.00,,,0.00,weatherlink.com 1.10,2013-08-10 04:02:00,
2013-08-09 23:17:00,64.5,54.0,30.11,NW,310,0.0,2.0,68,0.00,,,0.00,weatherlink.com 1.10,2013-08-10 04:17:00,
2013-08-09 23:32:00,64.1,54.0,30.11,NNW,344,1.0,3.0,69,0.00,,,0.00,weatherlink.com 1.10,2013-08-10 04:32:00,
2013-08-09 23:47:00,64.1,54.0,30.11,NW,313,0.0,2.0,69,0.00,,,0.00,weatherlink.com 1.10,2013-08-10 04:47:00,